Location: NCO
(38.4404°N, 77.1340°W)
Time: 19:17:03
(UTC-05:00)

OTV 5 (USA 277) - Visible Passes

Search period start: 11 December 2018 00:00
Search period end: 21 December 2018 00:00
Orbit: 340 x 348 km, 54.5° (Epoch: 10 December)

Date Brightness Start Highest point End Pass type
(mag) Time Alt. Az. Time Alt. Az. Time Alt. Az.
11 Dec ? 06:38:26 10° NNW 06:40:53 25° NE 06:43:19 10° E visible
12 Dec ? 05:29:09 10° NNE 05:29:19 10° NNE 05:29:56 10° NE visible
13 Dec ? 05:52:09 18° N 05:53:18 24° NE 05:55:42 10° E visible
14 Dec ? 06:15:13 20° NW 06:17:03 85° NE 06:19:54 10° SE visible
15 Dec ? 05:06:55 18° ENE 05:06:55 18° ENE 05:08:05 10° E visible
15 Dec ? 06:38:22 11° WNW 06:40:34 22° SW 06:42:52 10° S visible
16 Dec ? 05:30:07 49° ESE 05:30:07 49° ESE 05:32:20 10° SE visible
17 Dec ? 05:53:25 23° SW 05:53:25 23° SW 05:55:21 10° S visible
